Hilo, HI

5:06 AM HST on September 30, 2016 (GMT -1000)
Hilo International

Weather History for PHTO - February, 2014

Change the Weather History Date:

Friday, February 28, 2014

  Actual Average Record
Temperature  
Mean Temperature 72 °F 71 °F  
Max Temperature 82 °F 79 °F 88 °F (1995)
Min Temperature 62 °F 64 °F 57 °F (1965)
Degree Days  
Heating Degree Days 0 0  
Month to date heating degree days 0 0  
Since 1 July heating degree days 0 0  
Cooling Degree Days 7 6  
Month to date cooling degree days 246 172  
Year to date cooling degree days 458 370  
Growing Degree Days 20 (Base 50)    
Moisture  
Dew Point 62 °F    
Average Humidity 76    
Maximum Humidity 93    
Minimum Humidity 58    
Precipitation  
Precipitation 0.00 in 0.38 in 3.94 in (1985)
Month to date precipitation 2.57 9.56  
Year to date precipitation 8.23 18.82  
Snow  
Snow 0.00 in - - ()
Month to date snowfall 0.0  
Since 1 July snowfall 0.0  
Snow Depth 0.00 in    
Sea Level Pressure  
Sea Level Pressure 29.95 in    
Wind  
Wind Speed 9 mph (South)    
Max Wind Speed 20 mph    
Max Gust Speed 24 mph    
Visibility 10 miles    
Events      
T = Trace of Precipitation, MM = Missing Value Source: NWS Daily Summary

Daily Weather History Graph

Daily Weather History Graph

Search for Another Location

Airport or City:

Trip Planner

Search our weather history database for the weather conditions in past years. The results will help you decide how hot, cold, wet, or windy it might be!

Date:

Astronomy

Feb. 28, 2014 Rise Set
Actual Time 6:40 AM HST 6:25 PM HST
Civil Twilight 6:18 AM HST 6:47 PM HST
Nautical Twilight 5:52 AM HST 7:12 PM HST
Astronomical Twilight 5:27 AM HST 7:38 PM HST
Moon 6:02 AM HST (2/28) 6:10 PM HST (2/28)
Length of Visible Light 12h 29m
Length of Day
11h 44m
Waning Crescent, 0% of the Moon is Illuminated
Feb 28
Waning Crescent
Feb 28
New
Mar 8
First Quarter
Mar 16
Full
Mar 23
Last Quarter

Hourly Weather History & Observations

Time (HST) Temp. Heat Index Dew Point Humidity Pressure Visibility Wind Dir Wind Speed Gust Speed Precip Events Conditions
12:53 AM 64.0 °F - 60.1 °F 87% 30.00 in 10.0 mi WSW 9.2 mph - N/A   Mostly Cloudy
1:53 AM 64.9 °F - 57.9 °F 78% 29.98 in 10.0 mi SW 8.1 mph - N/A   Mostly Cloudy
2:53 AM 63.0 °F - 55.9 °F 78% 29.96 in 10.0 mi WSW 9.2 mph - N/A   Scattered Clouds
3:53 AM 64.0 °F - 54.0 °F 70% 29.96 in 10.0 mi SW 6.9 mph - N/A   Partly Cloudy
4:53 AM 63.0 °F - 54.0 °F 72% 29.95 in 10.0 mi WSW 8.1 mph - N/A   Partly Cloudy
5:53 AM 62.1 °F - 55.0 °F 78% 29.96 in 10.0 mi SW 9.2 mph - N/A   Partly Cloudy
6:53 AM 62.1 °F - 53.1 °F 72% 29.97 in 10.0 mi SW 9.2 mph - N/A   Partly Cloudy
7:53 AM 66.9 °F - 55.0 °F 66% 29.99 in 10.0 mi SW 6.9 mph - N/A   Partly Cloudy
8:53 AM 73.9 °F - 60.1 °F 62% 30.00 in 10.0 mi WSW 5.8 mph - N/A   Partly Cloudy
9:53 AM 77.0 °F - 64.0 °F 64% 30.00 in 10.0 mi SSE 5.8 mph - N/A   Scattered Clouds
10:53 AM 79.0 °F - 64.9 °F 62% 29.99 in 10.0 mi ESE 10.4 mph - N/A   Clear
11:53 AM 80.1 °F 81.9 °F 64.9 °F 60% 29.96 in 10.0 mi ESE 12.7 mph - N/A   Partly Cloudy
12:53 PM 82.0 °F 84.1 °F 66.0 °F 58% 29.93 in 10.0 mi ESE 15.0 mph - N/A   Partly Cloudy
1:53 PM 79.0 °F - 66.0 °F 64% 29.91 in 10.0 mi ESE 15.0 mph - N/A   Scattered Clouds
2:53 PM 75.9 °F - 66.0 °F 71% 29.90 in 10.0 mi ESE 13.8 mph - N/A   Mostly Cloudy
3:53 PM 79.0 °F - 66.0 °F 64% 29.89 in 10.0 mi SE 11.5 mph - N/A   Scattered Clouds
4:53 PM 77.0 °F - 64.9 °F 66% 29.89 in 10.0 mi SSE 12.7 mph - N/A   Mostly Cloudy
5:53 PM 75.0 °F - 64.9 °F 71% 29.90 in 10.0 mi SE 8.1 mph - N/A   Mostly Cloudy
6:53 PM 73.0 °F - 64.9 °F 76% 29.90 in 10.0 mi SSE 9.2 mph - N/A   Partly Cloudy
7:53 PM 71.1 °F - 64.9 °F 81% 29.92 in 10.0 mi SSE 5.8 mph - N/A   Clear
8:53 PM 71.1 °F - 66.0 °F 84% 29.95 in 10.0 mi SSE 4.6 mph - N/A   Mostly Cloudy
9:53 PM 70.0 °F - 64.9 °F 84% 29.95 in 10.0 mi SSW 4.6 mph - N/A   Overcast
10:53 PM 68.0 °F - 63.0 °F 84% 29.95 in 10.0 mi SSE 4.6 mph - N/A   Clear
11:53 PM 66.0 °F - 62.1 °F 87% 29.95 in 10.0 mi SSW 4.6 mph - N/A   Clear